owner,sensor,date,latitude,longitude,vertical_datum,sea_water_temperature,qcFlag
BP,ioos:station:wmo:42369:2,2021-06-03T22:59:00Z,29.2535,-90.6610,1.0,33.1,11111222
BP,ioos:station:wmo:42369:2,2021-06-03T23:59:00Z,29.2535,-90.6610,0.4,30.7,11111222
BP,ioos:station:wmo:42369:2,2021-06-04T00:19:00Z,29.2535,-90.6609,0.8,30.2,11111222
BP,ioos:station:wmo:42369:2,2021-06-04T00:39:00Z,29.2535,-90.6610,0.8,29.8,11111222
BP,ioos:station:wmo:42369:2,2021-06-04T00:59:00Z,29.2535,-90.6610,0.4,29.2,11111222
BP,ioos:station:wmo:42369:2,2021-06-04T01:19:00Z,29.2535,-90.6610,1.0,27.9,11111222
BP,ioos:station:wmo:42369:2,2021-06-04T01:39:00Z,29.2535,-90.6609,0.4,27.3,11111222
BP,ioos:station:wmo:42369:2,2021-06-04T01:59:00Z,29.2535,-90.6609,0.8,27.2,11111222
BP,ioos:station:wmo:42369:2,2021-06-04T02:19:00Z,29.2535,-90.6609,0.6,27.2,11111222
BP,ioos:station:wmo:42369:2,2021-06-04T02:39:00Z,29.2535,-90.6609,1.0,27.2,11111222
BP,ioos:station:wmo:42369:2,2021-06-04T02:59:00Z,29.2535,-90.6610,0.9,27.2,11111222
BP,ioos:station:wmo:42369:2,2021-06-04T03:19:00Z,29.2535,-90.6609,0.7,27.2,11111222
BP,ioos:station:wmo:42369:2,2021-06-04T03:39:00Z,29.2535,-90.6609,1.2,27.1,11111222
BP,ioos:station:wmo:42369:2,2021-06-04T03:59:00Z,29.2535,-90.6610,0.8,27.1,11111222
BP,ioos:station:wmo:42369:2,2021-06-04T04:19:00Z,29.2535,-90.6610,1.0,27.2,11111222
BP,ioos:station:wmo:42369:2,2021-06-04T04:39:00Z,29.2535,-90.6610,0.4,27.2,11111222
BP,ioos:station:wmo:42369:2,2021-06-04T04:59:00Z,29.2535,-90.6610,0.7,27.2,11111222
BP,ioos:station:wmo:42369:2,2021-06-04T05:19:00Z,29.2535,-90.6610,0.5,27.1,11111222
BP,ioos:station:wmo:42369:2,2021-06-04T05:39:00Z,29.2535,-90.6610,0.6,27.1,11111222
BP,ioos:station:wmo:42369:2,2021-06-04T05:59:00Z,29.2535,-90.6610,0.7,27.1,11111222
BP,ioos:station:wmo:42369:2,2021-06-04T06:19:00Z,29.2535,-90.6610,0.5,27.1,11111222
BP,ioos:station:wmo:42369:2,2021-06-04T06:39:00Z,29.2535,-90.6610,0.7,27.1,11111222
BP,ioos:station:wmo:42369:2,2021-06-04T06:59:00Z,29.2535,-90.6610,0.6,27.1,11111222
BP,ioos:station:wmo:42369:2,2021-06-04T07:19:00Z,29.2535,-90.6610,1.0,27.0,11111222
BP,ioos:station:wmo:42369:2,2021-06-04T07:39:00Z,29.2535,-90.6610,0.5,26.5,11111222
BP,ioos:station:wmo:42369:2,2021-06-04T07:59:00Z,29.2535,-90.6610,0.5,26.4,11111222
BP,ioos:station:wmo:42369:2,2021-06-04T08:19:00Z,29.2535,-90.6610,0.7,26.4,11111222
BP,ioos:station:wmo:42369:2,2021-06-04T08:39:00Z,29.2535,-90.6610,0.5,26.3,11111222
BP,ioos:station:wmo:42369:2,2021-06-04T08:59:00Z,29.2535,-90.6610,0.6,25.9,11111222
BP,ioos:station:wmo:42369:2,2021-06-04T09:19:00Z,29.2535,-90.6610,0.4,25.5,11111222
BP,ioos:station:wmo:42369:2,2021-06-04T09:39:00Z,29.2535,-90.6610,0.9,25.4,11111222
BP,ioos:station:wmo:42369:2,2021-06-04T09:59:00Z,29.2535,-90.6610,0.5,25.3,11111222
BP,ioos:station:wmo:42369:2,2021-06-04T10:19:00Z,29.2535,-90.6610,0.4,25.4,11111222
BP,ioos:station:wmo:42369:2,2021-06-04T10:39:00Z,29.2535,-90.6610,0.8,25.4,11111222
BP,ioos:station:wmo:42369:2,2021-06-04T10:59:00Z,29.2535,-90.6610,0.6,25.5,11111222
BP,ioos:station:wmo:42369:2,2021-06-04T11:19:00Z,29.2535,-90.6610,0.2,25.5,11111222
BP,ioos:station:wmo:42369:2,2021-06-04T11:39:00Z,29.2535,-90.6610,1.1,25.6,11111222
BP,ioos:station:wmo:42369:2,2021-06-04T11:59:00Z,29.2535,-90.6610,1.0,25.7,11111222
BP,ioos:station:wmo:42369:2,2021-06-04T12:19:00Z,29.2535,-90.6610,0.9,25.8,11111222
BP,ioos:station:wmo:42369:2,2021-06-04T12:39:00Z,29.2535,-90.6610,0.9,25.9,11111222
BP,ioos:station:wmo:42369:2,2021-06-04T12:59:00Z,29.2535,-90.6610,0.4,26.0,11111222
BP,ioos:station:wmo:42369:2,2021-06-04T13:19:00Z,29.2535,-90.6610,0.6,25.9,11111222
BP,ioos:station:wmo:42369:2,2021-06-04T13:39:00Z,29.2535,-90.6610,1.2,26.0,11111222
BP,ioos:station:wmo:42369:2,2021-06-04T13:59:00Z,29.2535,-90.6610,0.9,26.1,11111222
BP,ioos:station:wmo:42369:2,2021-06-04T14:19:00Z,29.2535,-90.6610,0.7,26.4,11111222
BP,ioos:station:wmo:42369:2,2021-06-04T14:39:00Z,29.2535,-90.6610,0.5,26.6,11111222
BP,ioos:station:wmo:42369:2,2021-06-04T14:59:00Z,29.2535,-90.6610,0.5,26.8,11111222
BP,ioos:station:wmo:42369:2,2021-06-04T15:19:00Z,29.2535,-90.6610,1.0,26.8,11111222
BP,ioos:station:wmo:42369:2,2021-06-04T15:39:00Z,29.2535,-90.6610,0.5,26.9,11111222
BP,ioos:station:wmo:42369:2,2021-06-04T15:59:00Z,29.2535,-90.6610,0.6,27.1,11111222
BP,ioos:station:wmo:42369:2,2021-06-04T16:19:00Z,29.2535,-90.6610,0.7,27.3,11111222
BP,ioos:station:wmo:42369:2,2021-06-04T16:39:00Z,29.2535,-90.6610,0.6,27.3,11111222
BP,ioos:station:wmo:42369:2,2021-06-04T16:59:00Z,29.2535,-90.6610,0.8,27.3,11111222
BP,ioos:station:wmo:42369:2,2021-06-04T17:19:00Z,29.2535,-90.6609,0.4,26.7,11111222
BP,ioos:station:wmo:42369:2,2021-06-04T17:39:00Z,29.2535,-90.6609,0.6,26.2,11111222
BP,ioos:station:wmo:42369:2,2021-06-04T17:59:00Z,29.2535,-90.6610,0.4,25.7,11111222
BP,ioos:station:wmo:42369:2,2021-06-04T18:19:00Z,29.2535,-90.6610,0.8,25.8,11111222
BP,ioos:station:wmo:42369:2,2021-06-04T18:39:00Z,29.2535,-90.6610,0.6,26.0,11111222
BP,ioos:station:wmo:42369:2,2021-06-04T18:59:00Z,29.2535,-90.6610,0.8,26.0,11111222
BP,ioos:station:wmo:42369:2,2021-06-04T19:19:00Z,29.2535,-90.6610,0.4,26.1,11111222
BP,ioos:station:wmo:42369:2,2021-06-04T19:39:00Z,29.2535,-90.6610,1.1,26.2,11111222
BP,ioos:station:wmo:42369:2,2021-06-04T19:59:00Z,29.2535,-90.6610,0.4,26.4,11111222
BP,ioos:station:wmo:42369:2,2021-06-04T20:19:00Z,29.2535,-90.6610,0.7,26.7,11111222
BP,ioos:station:wmo:42369:2,2021-06-04T20:39:00Z,29.2535,-90.6609,1.0,27.3,11111222
BP,ioos:station:wmo:42369:2,2021-06-23T00:39:00Z,29.2535,-90.6610,1.4,31.9,11111222
BP,ioos:station:wmo:42369:2,2021-06-23T00:59:00Z,29.2536,-90.6610,0.8,31.6,11111222
BP,ioos:station:wmo:42369:2,2021-06-23T01:19:00Z,29.2536,-90.6610,0.8,31.2,11111222
BP,ioos:station:wmo:42369:2,2021-06-23T01:39:00Z,29.2536,-90.6610,0.4,30.8,11111222
BP,ioos:station:wmo:42369:2,2021-06-23T01:59:00Z,29.2535,-90.6610,0.8,30.4,11111222
BP,ioos:station:wmo:42369:2,2021-06-23T02:19:00Z,29.2535,-90.6610,0.6,30.2,11111222
BP,ioos:station:wmo:42369:2,2021-06-23T02:39:00Z,29.2536,-90.6610,0.3,29.9,11111222
BP,ioos:station:wmo:42369:2,2021-06-23T02:59:00Z,29.2535,-90.6610,0.3,29.4,11111222
BP,ioos:station:wmo:42369:2,2021-06-23T03:19:00Z,29.2536,-90.6610,1.2,29.0,11111222
BP,ioos:station:wmo:42369:2,2021-06-23T03:39:00Z,29.2535,-90.6610,0.9,28.8,11111222
BP,ioos:station:wmo:42369:2,2021-06-23T03:59:00Z,29.2535,-90.6610,0.7,28.6,11111222
BP,ioos:station:wmo:42369:2,2021-06-23T04:19:00Z,29.2536,-90.6610,0.8,28.5,11111222
BP,ioos:station:wmo:42369:2,2021-06-23T04:39:00Z,29.2536,-90.6610,0.8,28.4,11111222
BP,ioos:station:wmo:42369:2,2021-06-23T04:59:00Z,29.2536,-90.6610,0.5,28.3,11111222
BP,ioos:station:wmo:42369:2,2021-06-23T05:19:00Z,29.2536,-90.6610,0.8,28.2,11111222
BP,ioos:station:wmo:42369:2,2021-06-23T05:39:00Z,29.2536,-90.6610,0.8,28.1,11111222
BP,ioos:station:wmo:42369:2,2021-06-23T10:59:00Z,29.2536,-90.6610,0.9,26.7,11111222
BP,ioos:station:wmo:42369:2,2021-06-23T11:19:00Z,29.2536,-90.6610,0.7,26.7,11111222
BP,ioos:station:wmo:42369:2,2021-06-23T11:39:00Z,29.2536,-90.6610,0.7,26.7,11111222
BP,ioos:station:wmo:42369:2,2021-06-23T11:59:00Z,29.2535,-90.6610,0.7,26.7,11111222
BP,ioos:station:wmo:42369:2,2021-06-23T12:19:00Z,29.2536,-90.6610,0.4,26.8,11111222
BP,ioos:station:wmo:42369:2,2021-06-23T12:39:00Z,29.2536,-90.6610,0.5,26.9,11111222
BP,ioos:station:wmo:42369:2,2021-06-23T12:59:00Z,29.2535,-90.6610,0.8,27.1,11111222
BP,ioos:station:wmo:42369:2,2021-06-23T13:19:00Z,29.2536,-90.6610,0.7,27.2,11111222
BP,ioos:station:wmo:42369:2,2021-06-23T13:39:00Z,29.2536,-90.6610,0.5,27.4,11111222
BP,ioos:station:wmo:42369:2,2021-06-23T13:59:00Z,29.2536,-90.6610,0.9,27.6,11111222
BP,ioos:station:wmo:42369:2,2021-06-23T14:19:00Z,29.2536,-90.6610,1.1,27.8,11111222
BP,ioos:station:wmo:42369:2,2021-06-23T14:39:00Z,29.2536,-90.6610,0.7,28.2,11111222
BP,ioos:station:wmo:42369:2,2021-06-23T14:59:00Z,29.2536,-90.6610,1.0,28.5,11111222
BP,ioos:station:wmo:42369:2,2021-06-23T15:19:00Z,29.2536,-90.6610,0.9,28.8,11111222
BP,ioos:station:wmo:42369:2,2021-06-23T15:39:00Z,29.2536,-90.6610,0.8,28.9,11111222
BP,ioos:station:wmo:42369:2,2021-06-23T15:59:00Z,29.2536,-90.6610,0.5,29.0,11111222
BP,ioos:station:wmo:42369:2,2021-06-23T16:19:00Z,29.2536,-90.6610,0.7,29.1,11111222
BP,ioos:station:wmo:42369:2,2021-06-23T16:39:00Z,29.2536,-90.6610,0.8,29.3,11111222
BP,ioos:station:wmo:42369:2,2021-06-23T16:59:00Z,29.2536,-90.6610,0.7,29.6,11111222
BP,ioos:station:wmo:42369:2,2021-06-23T17:19:00Z,29.2536,-90.6610,1.2,30.5,11111222
BP,ioos:station:wmo:42369:2,2021-06-23T17:39:00Z,29.2536,-90.6610,0.8,31.2,11111222
BP,ioos:station:wmo:42369:2,2021-06-23T17:59:00Z,29.2536,-90.6610,1.1,31.8,11111222
BP,ioos:station:wmo:42369:2,2021-06-23T18:19:00Z,29.2536,-90.6610,0.3,32.3,11111222
BP,ioos:station:wmo:42369:2,2021-06-23T18:39:00Z,29.2536,-90.6610,0.5,33.0,11111222
BP,ioos:station:wmo:42369:2,2021-06-23T18:59:00Z,29.2536,-90.6610,0.7,33.6,11111222
BP,ioos:station:wmo:42369:2,2021-06-23T19:19:00Z,29.2536,-90.6610,0.5,34.2,11111222
BP,ioos:station:wmo:42369:2,2021-06-23T19:39:00Z,29.2536,-90.6610,0.5,34.6,11111222
BP,ioos:station:wmo:42369:2,2021-06-23T19:59:00Z,29.2536,-90.6610,0.5,35.1,11133222
BP,ioos:station:wmo:42369:2,2021-06-23T20:19:00Z,29.2536,-90.6610,0.7,35.3,11133222
BP,ioos:station:wmo:42369:2,2021-06-23T20:39:00Z,29.2536,-90.6610,0.9,35.6,11133222
BP,ioos:station:wmo:42369:2,2021-06-23T20:59:00Z,29.2536,-90.6610,0.6,35.8,11133222
BP,ioos:station:wmo:42369:2,2021-06-23T21:19:00Z,29.2536,-90.6610,0.4,36.1,11133222
BP,ioos:station:wmo:42369:2,2021-06-23T21:39:00Z,29.2536,-90.6610,0.8,36.1,11133222
BP,ioos:station:wmo:42369:2,2021-06-23T21:59:00Z,29.2536,-90.6610,0.5,36.0,11133222
BP,ioos:station:wmo:42369:2,2021-06-23T22:19:00Z,29.2536,-90.6610,0.1,35.9,11133222
BP,ioos:station:wmo:42369:2,2021-06-23T22:39:00Z,29.2536,-90.6610,0.6,35.7,11133222
BP,ioos:station:wmo:42369:2,2021-06-23T22:59:00Z,29.2536,-90.6610,0.8,35.3,11133222
BP,ioos:station:wmo:42369:2,2021-06-23T23:19:00Z,29.2536,-90.6610,0.6,34.9,11111222
BP,ioos:station:wmo:42369:2,2021-06-23T23:39:00Z,29.2536,-90.6610,0.4,34.5,11111222
BP,ioos:station:wmo:42369:2,2021-06-23T23:59:00Z,29.2536,-90.6610,0.1,34.2,11111222
BP,ioos:station:wmo:42369:2,2021-06-24T00:19:00Z,29.2536,-90.6610,0.6,33.9,11111222
BP,ioos:station:wmo:42369:2,2021-06-24T00:39:00Z,29.2536,-90.6610,0.3,33.5,11111222
BP,ioos:station:wmo:42369:2,2021-06-24T00:59:00Z,29.2535,-90.6610,1.4,33.1,11111222
BP,ioos:station:wmo:42369:2,2021-06-24T01:19:00Z,29.2535,-90.6610,0.9,32.8,11111222
BP,ioos:station:wmo:42369:2,2021-06-24T01:39:00Z,29.2535,-90.6610,0.8,32.3,11111222
BP,ioos:station:wmo:42369:2,2021-06-24T01:59:00Z,29.2535,-90.6610,1.3,32.0,11111222
BP,ioos:station:wmo:42369:2,2021-06-24T02:19:00Z,29.2535,-90.6610,1.0,31.7,11111222
BP,ioos:station:wmo:42369:2,2021-06-24T02:39:00Z,29.2535,-90.6610,0.7,31.4,11111222
BP,ioos:station:wmo:42369:2,2021-06-24T02:59:00Z,29.2535,-90.6610,0.4,31.2,11111222
BP,ioos:station:wmo:42369:2,2021-06-24T03:19:00Z,29.2535,-90.6610,1.1,30.9,11111222
BP,ioos:station:wmo:42369:2,2021-06-24T03:39:00Z,29.2535,-90.6610,1.0,30.7,11111222
BP,ioos:station:wmo:42369:2,2021-06-24T03:59:00Z,29.2535,-90.6610,0.9,30.5,11111222
BP,ioos:station:wmo:42369:2,2021-06-24T04:19:00Z,29.2535,-90.6610,0.8,30.4,11111222
BP,ioos:station:wmo:42369:2,2021-06-24T04:39:00Z,29.2535,-90.6610,0.8,30.3,11111222
BP,ioos:station:wmo:42369:2,2021-06-24T04:59:00Z,29.2536,-90.6610,0.8,30.1,11111222
BP,ioos:station:wmo:42369:2,2021-06-24T05:19:00Z,29.2536,-90.6610,0.6,30.1,11111222
BP,ioos:station:wmo:42369:2,2021-06-24T05:39:00Z,29.2536,-90.6610,0.4,30.0,11111222
BP,ioos:station:wmo:42369:2,2021-06-24T05:59:00Z,29.2536,-90.6610,0.2,29.9,11111222
BP,ioos:station:wmo:42369:2,2021-06-24T06:19:00Z,29.2536,-90.6610,0.4,29.8,11111222
BP,ioos:station:wmo:42369:2,2021-06-24T06:39:00Z,29.2536,-90.6610,0.9,29.7,11111222
BP,ioos:station:wmo:42369:2,2021-06-24T06:59:00Z,29.2536,-90.6610,0.6,29.6,11111222
BP,ioos:station:wmo:42369:2,2021-06-24T07:19:00Z,29.2536,-90.6610,0.8,29.5,11111222
BP,ioos:station:wmo:42369:2,2021-06-24T07:39:00Z,29.2536,-90.6610,0.9,29.4,11111222
BP,ioos:station:wmo:42369:2,2021-06-24T07:59:00Z,29.2536,-90.6610,0.5,29.3,11111222
BP,ioos:station:wmo:42369:2,2021-06-24T08:19:00Z,29.2535,-90.6610,0.5,29.3,11111222
BP,ioos:station:wmo:42369:2,2021-06-24T08:39:00Z,29.2535,-90.6610,0.5,29.2,11111222
BP,ioos:station:wmo:42369:2,2021-06-24T08:59:00Z,29.2535,-90.6610,0.4,29.1,11111222
BP,ioos:station:wmo:42369:2,2021-06-24T09:19:00Z,29.2535,-90.6610,0.5,29.1,11111222
BP,ioos:station:wmo:42369:2,2021-06-24T09:39:00Z,29.2535,-90.6610,0.8,29.0,11111222
BP,ioos:station:wmo:42369:2,2021-06-24T09:59:00Z,29.2535,-90.6610,0.8,29.0,11111222
BP,ioos:station:wmo:42369:2,2021-06-24T10:19:00Z,29.2535,-90.6610,0.1,28.9,11111222
BP,ioos:station:wmo:42369:2,2021-06-24T10:39:00Z,29.2535,-90.6610,0.6,28.9,11111222
BP,ioos:station:wmo:42369:2,2021-06-24T10:59:00Z,29.2536,-90.6610,0.3,28.8,11111222
BP,ioos:station:wmo:42369:2,2021-06-24T11:19:00Z,29.2536,-90.6610,0.6,28.8,11111222
BP,ioos:station:wmo:42369:2,2021-06-24T11:39:00Z,29.2536,-90.6610,0.6,28.7,11111222
BP,ioos:station:wmo:42369:2,2021-06-24T11:59:00Z,29.2536,-90.6610,0.7,28.7,11111222
BP,ioos:station:wmo:42369:2,2021-06-24T12:19:00Z,29.2536,-90.6610,0.3,28.7,11111222
BP,ioos:station:wmo:42369:2,2021-06-24T12:39:00Z,29.2536,-90.6610,0.8,28.7,11111222
BP,ioos:station:wmo:42369:2,2021-06-24T12:59:00Z,29.2536,-90.6610,0.9,28.7,11111222
BP,ioos:station:wmo:42369:2,2021-06-24T13:19:00Z,29.2536,-90.6610,1.2,28.8,11111222
BP,ioos:station:wmo:42369:2,2021-06-24T13:39:00Z,29.2536,-90.6610,0.5,28.8,11111222
BP,ioos:station:wmo:42369:2,2021-06-24T13:59:00Z,29.2536,-90.6610,0.7,28.9,11111222
BP,ioos:station:wmo:42369:2,2021-06-24T14:19:00Z,29.2536,-90.6610,0.4,28.9,11111222
BP,ioos:station:wmo:42369:2,2021-06-24T14:39:00Z,29.2536,-90.6610,0.5,29.0,11111222
BP,ioos:station:wmo:42369:2,2021-06-24T14:59:00Z,29.2536,-90.6610,0.4,29.1,11111222
BP,ioos:station:wmo:42369:2,2021-06-24T15:19:00Z,29.2536,-90.6610,0.2,29.3,11111222
BP,ioos:station:wmo:42369:2,2021-06-24T15:39:00Z,29.2536,-90.6610,0.2,29.5,11111222
BP,ioos:station:wmo:42369:2,2021-06-24T15:59:00Z,29.2536,-90.6610,0.4,29.6,11111222
BP,ioos:station:wmo:42369:2,2021-06-24T16:19:00Z,29.2536,-90.6610,0.6,29.8,11111222
BP,ioos:station:wmo:42369:2,2021-06-24T16:39:00Z,29.2536,-90.6610,0.7,30.0,11111222
BP,ioos:station:wmo:42369:2,2021-06-24T16:59:00Z,29.2536,-90.6610,0.5,30.4,11111222
BP,ioos:station:wmo:42369:2,2021-06-24T17:19:00Z,29.2536,-90.6610,0.3,31.1,11111222
BP,ioos:station:wmo:42369:2,2021-06-24T17:39:00Z,29.2536,-90.6610,1.0,31.8,11111222
BP,ioos:station:wmo:42369:2,2021-06-24T17:59:00Z,29.2536,-90.6610,0.3,32.5,11111222
BP,ioos:station:wmo:42369:2,2021-06-24T18:19:00Z,29.2536,-90.6610,0.7,33.1,11111222
BP,ioos:station:wmo:42369:2,2021-06-24T18:39:00Z,29.2535,-90.6610,0.2,33.6,11111222
BP,ioos:station:wmo:42369:2,2021-06-24T18:59:00Z,29.2535,-90.6610,0.5,34.0,11111222
BP,ioos:station:wmo:42369:2,2021-06-24T19:19:00Z,29.2535,-90.6610,0.3,34.5,11111222
BP,ioos:station:wmo:42369:2,2021-06-24T19:39:00Z,29.2535,-90.6610,0.2,34.9,11111222
BP,ioos:station:wmo:42369:2,2021-06-24T19:59:00Z,29.2535,-90.6610,0.4,35.3,11133222
BP,ioos:station:wmo:42369:2,2021-06-24T20:19:00Z,29.2535,-90.6610,1.0,35.5,11133222
BP,ioos:station:wmo:42369:2,2021-06-24T20:39:00Z,29.2535,-90.6610,0.4,35.9,11133222
BP,ioos:station:wmo:42369:2,2021-06-24T20:59:00Z,29.2535,-90.6610,0.5,36.5,11133222
BP,ioos:station:wmo:42369:2,2021-06-24T21:19:00Z,29.2535,-90.6610,0.3,36.8,11133222
BP,ioos:station:wmo:42369:2,2021-06-24T21:39:00Z,29.2535,-90.6610,0.3,37.0,11133222
BP,ioos:station:wmo:42369:2,2021-06-24T21:59:00Z,29.2535,-90.6610,0.6,36.6,11133222
BP,ioos:station:wmo:42369:2,2021-06-24T22:19:00Z,29.2535,-90.6610,0.4,36.2,11133222
BP,ioos:station:wmo:42369:2,2021-06-24T22:39:00Z,29.2535,-90.6610,0.7,35.6,11133222
BP,ioos:station:wmo:42369:2,2021-06-24T22:59:00Z,29.2535,-90.6610,0.2,35.0,11133222
BP,ioos:station:wmo:42369:2,2021-06-24T23:19:00Z,29.2536,-90.6610,0.2,34.5,11111222
BP,ioos:station:wmo:42369:2,2021-06-24T23:39:00Z,29.2536,-90.6610,0.5,34.1,11111222
BP,ioos:station:wmo:42369:2,2021-06-24T23:59:00Z,29.2536,-90.6610,0.5,33.7,11111222
BP,ioos:station:wmo:42369:2,2021-06-25T00:19:00Z,29.2536,-90.6610,0.7,33.3,11111222
BP,ioos:station:wmo:42369:2,2021-06-25T00:39:00Z,29.2536,-90.6610,0.7,32.9,11111222
BP,ioos:station:wmo:42369:2,2021-06-25T00:59:00Z,29.2536,-90.6610,0.6,32.6,11111222
BP,ioos:station:wmo:42369:2,2021-06-25T01:19:00Z,29.2536,-90.6610,0.4,32.3,11111222
BP,ioos:station:wmo:42369:2,2021-06-25T01:39:00Z,29.2536,-90.6610,0.8,32.0,11111222
BP,ioos:station:wmo:42369:2,2021-06-25T01:59:00Z,29.2536,-90.6610,0.5,31.7,11111222
BP,ioos:station:wmo:42369:2,2021-06-25T02:19:00Z,29.2536,-90.6610,0.6,31.5,11111222
BP,ioos:station:wmo:42369:2,2021-06-25T02:39:00Z,29.2535,-90.6610,0.9,31.3,11111222
BP,ioos:station:wmo:42369:2,2021-06-25T02:59:00Z,29.2535,-90.6610,0.8,31.1,11111222
BP,ioos:station:wmo:42369:2,2021-06-25T03:19:00Z,29.2535,-90.6610,0.5,30.9,11111222
BP,ioos:station:wmo:42369:2,2021-06-25T03:39:00Z,29.2535,-90.6610,0.5,30.8,11111222
BP,ioos:station:wmo:42369:2,2021-06-25T03:59:00Z,29.2535,-90.6610,0.6,30.5,11111222
BP,ioos:station:wmo:42369:2,2021-06-25T04:19:00Z,29.2535,-90.6610,0.7,30.4,11111222
BP,ioos:station:wmo:42369:2,2021-06-25T04:39:00Z,29.2535,-90.6610,0.9,30.2,11111222
BP,ioos:station:wmo:42369:2,2021-06-25T04:59:00Z,29.2535,-90.6610,0.3,30.1,11111222
BP,ioos:station:wmo:42369:2,2021-06-25T05:19:00Z,29.2535,-90.6610,0.5,30.0,11111222
BP,ioos:station:wmo:42369:2,2021-06-25T05:39:00Z,29.2535,-90.6610,0.6,29.9,11111222
BP,ioos:station:wmo:42369:2,2021-06-25T05:59:00Z,29.2535,-90.6610,0.5,29.9,11111222
BP,ioos:station:wmo:42369:2,2021-06-25T06:19:00Z,29.2535,-90.6610,0.5,29.8,11111222
BP,ioos:station:wmo:42369:2,2021-06-25T06:39:00Z,29.2536,-90.6610,0.6,29.7,11111222
BP,ioos:station:wmo:42369:2,2021-06-25T06:59:00Z,29.2536,-90.6610,0.6,29.6,11111222
BP,ioos:station:wmo:42369:2,2021-06-25T07:19:00Z,29.2536,-90.6610,0.3,29.5,11111222
BP,ioos:station:wmo:42369:2,2021-06-25T07:39:00Z,29.2536,-90.6610,0.8,29.4,11111222
BP,ioos:station:wmo:42369:2,2021-06-25T07:59:00Z,29.2535,-90.6610,0.5,29.3,11111222
BP,ioos:station:wmo:42369:2,2021-06-25T08:19:00Z,29.2536,-90.6610,0.4,29.2,11111222
BP,ioos:station:wmo:42369:2,2021-06-25T08:39:00Z,29.2536,-90.6610,0.5,29.2,11111222
BP,ioos:station:wmo:42369:2,2021-06-25T08:59:00Z,29.2536,-90.6610,0.5,29.1,11111222
BP,ioos:station:wmo:42369:2,2021-06-25T09:19:00Z,29.2536,-90.6610,0.4,29.1,11111222
BP,ioos:station:wmo:42369:2,2021-06-25T09:39:00Z,29.2536,-90.6610,0.4,29.0,11111222
BP,ioos:station:wmo:42369:2,2021-06-25T09:59:00Z,29.2536,-90.6610,0.5,28.9,11111222
BP,ioos:station:wmo:42369:2,2021-06-25T15:39:00Z,29.2536,-90.6610,0.9,29.6,11111222
BP,ioos:station:wmo:42369:2,2021-06-25T21:39:00Z,29.2537,-90.6610,0.2,29.4,11111222
BP,ioos:station:wmo:42369:2,2021-06-25T22:19:00Z,29.2489,-90.6668,0.8,28.9,11111222
BP,ioos:station:wmo:42369:2,2021-06-25T22:39:00Z,29.1837,-90.6095,0.5,28.7,11111222
BP,ioos:station:wmo:42369:2,2021-06-25T22:59:00Z,29.1439,-90.5927,0.8,28.7,11111222
BP,ioos:station:wmo:42369:2,2021-06-25T23:19:00Z,29.0982,-90.5770,0.4,28.2,11111222
BP,ioos:station:wmo:42369:2,2021-06-25T23:39:00Z,29.0457,-90.5745,0.3,27.9,11111222
BP,ioos:station:wmo:42369:2,2021-06-25T23:59:00Z,28.9954,-90.5651,0.5,28.0,11111222
BP,ioos:station:wmo:42369:2,2021-06-26T00:19:00Z,28.9470,-90.5570,0.6,28.1,11111222
BP,ioos:station:wmo:42369:2,2021-06-26T00:39:00Z,28.8979,-90.5485,0.5,28.1,11111222
BP,ioos:station:wmo:42369:2,2021-06-26T00:59:00Z,28.8484,-90.5392,0.2,28.1,11111222
BP,ioos:station:wmo:42369:2,2021-06-26T01:19:00Z,28.7990,-90.5308,0.4,28.1,11111222
BP,ioos:station:wmo:42369:2,2021-06-26T01:39:00Z,28.7510,-90.5243,0.4,28.0,11111222
BP,ioos:station:wmo:42369:2,2021-06-26T01:59:00Z,28.7035,-90.5192,0.2,28.0,11111222
BP,ioos:station:wmo:42369:2,2021-06-26T02:19:00Z,28.6562,-90.5133,0.8,28.0,11111222
BP,ioos:station:wmo:42369:2,2021-06-26T02:39:00Z,28.6079,-90.5018,0.7,27.9,11111222
BP,ioos:station:wmo:42369:2,2021-06-26T02:59:00Z,28.5584,-90.4908,0.7,27.9,11111222
BP,ioos:station:wmo:42369:2,2021-06-26T03:19:00Z,28.5087,-90.4805,0.3,27.9,11111222
BP,ioos:station:wmo:42369:2,2021-06-26T03:39:00Z,28.4587,-90.4735,0.5,27.9,11111222
BP,ioos:station:wmo:42369:2,2021-06-26T03:59:00Z,28.4090,-90.4673,0.4,27.9,11111222
BP,ioos:station:wmo:42369:2,2021-06-26T04:19:00Z,28.3597,-90.4626,0.6,28.0,11111222
BP,ioos:station:wmo:42369:2,2021-06-26T04:39:00Z,28.3117,-90.4562,0.2,28.0,11111222
BP,ioos:station:wmo:42369:2,2021-06-26T04:59:00Z,28.2634,-90.4492,0.6,28.0,11111222
BP,ioos:station:wmo:42369:2,2021-06-26T05:19:00Z,28.2150,-90.4424,0.2,27.9,11111222
BP,ioos:station:wmo:42369:2,2021-06-26T05:39:00Z,28.1663,-90.4347,0.5,27.9,11111222
BP,ioos:station:wmo:42369:2,2021-06-26T05:59:00Z,28.1183,-90.4271,0.5,27.9,11111222
BP,ioos:station:wmo:42369:2,2021-06-26T06:19:00Z,28.0712,-90.4196,0.6,27.9,11111222
BP,ioos:station:wmo:42369:2,2021-06-26T06:39:00Z,28.0244,-90.4121,0.4,27.9,11111222
BP,ioos:station:wmo:42369:2,2021-06-26T06:59:00Z,27.9775,-90.4047,0.9,27.9,11111222
BP,ioos:station:wmo:42369:2,2021-06-26T07:19:00Z,27.9298,-90.3970,0.3,27.9,11111222
BP,ioos:station:wmo:42369:2,2021-06-26T07:39:00Z,27.8816,-90.3893,0.6,27.8,11111222
BP,ioos:station:wmo:42369:2,2021-06-26T07:59:00Z,27.8333,-90.3817,0.6,27.8,11111222
BP,ioos:station:wmo:42369:2,2021-06-26T08:19:00Z,27.7851,-90.3740,0.8,27.9,11111222
BP,ioos:station:wmo:42369:2,2021-06-26T08:39:00Z,27.7369,-90.3664,0.2,27.9,11111222
BP,ioos:station:wmo:42369:2,2021-06-26T08:59:00Z,27.6887,-90.3587,0.2,27.9,11111222
BP,ioos:station:wmo:42369:2,2021-06-26T09:19:00Z,27.6399,-90.3510,0.6,27.9,11111222
BP,ioos:station:wmo:42369:2,2021-06-26T09:39:00Z,27.5907,-90.3432,0.3,27.8,11111222
BP,ioos:station:wmo:42369:2,2021-06-26T09:59:00Z,27.5410,-90.3353,0.3,27.8,11111222
BP,ioos:station:wmo:42369:2,2021-06-26T10:19:00Z,27.4914,-90.3275,1.1,27.8,11111222
BP,ioos:station:wmo:42369:2,2021-06-26T10:39:00Z,27.4418,-90.3196,0.9,27.7,11111222
BP,ioos:station:wmo:42369:2,2021-06-26T10:59:00Z,27.3914,-90.3116,0.5,27.8,11111222
BP,ioos:station:wmo:42369:2,2021-06-26T11:19:00Z,27.3402,-90.3036,0.7,27.8,11111222
BP,ioos:station:wmo:42369:2,2021-06-26T11:39:00Z,27.2889,-90.2955,0.6,28.0,11111222
BP,ioos:station:wmo:42369:2,2021-06-26T11:59:00Z,27.2349,-90.2870,0.4,28.3,11111222
BP,ioos:station:wmo:42369:2,2021-06-26T12:19:00Z,27.2075,-90.2841,0.4,28.6,11111222
BP,ioos:station:wmo:42369:2,2021-06-26T12:39:00Z,27.1944,-90.2756,0.6,28.9,11111222
BP,ioos:station:wmo:42369:2,2021-06-26T12:59:00Z,27.1898,-90.2817,0.7,29.3,11111222
BP,ioos:station:wmo:42369:2,2021-06-26T13:19:00Z,27.1977,-90.2938,0.2,29.6,11111222
BP,ioos:station:wmo:42369:2,2021-06-26T13:39:00Z,27.1993,-90.2977,0.8,26.9,11111222
BP,ioos:station:wmo:42369:2,2021-06-26T13:59:00Z,27.2024,-90.3020,1.2,27.2,11111222
BP,ioos:station:wmo:42369:2,2021-06-26T14:19:00Z,27.2294,-90.3543,1.1,28.1,11111222
BP,ioos:station:wmo:42369:2,2021-06-26T14:59:00Z,27.2029,-90.2880,0.7,28.6,11111222
BP,ioos:station:wmo:42369:2,2021-06-26T15:19:00Z,27.2029,-90.2881,0.7,29.0,11111222
BP,ioos:station:wmo:42369:2,2021-06-26T15:39:00Z,27.2029,-90.2881,0.2,29.5,11111222
BP,ioos:station:wmo:42369:2,2021-06-26T15:59:00Z,27.2048,-90.2889,0.1,30.1,11111222
BP,ioos:station:wmo:42369:2,2021-06-26T16:19:00Z,27.2047,-90.2889,0.7,30.6,11111222
BP,ioos:station:wmo:42369:2,2021-06-26T16:39:00Z,27.2047,-90.2889,0.9,30.8,11111222
BP,ioos:station:wmo:42369:2,2021-06-26T16:59:00Z,27.2047,-90.2889,0.8,31.4,11111222
BP,ioos:station:wmo:42369:2,2021-06-26T17:19:00Z,27.2046,-90.2889,0.7,32.0,11111222